Versailles, OH

5:52 PM EDT on April 29, 2017 (GMT -0400)
Darke County

Weather History for KVES - July, 2013

Change the Weather History Date:

Friday, July 12, 2013

  Actual Average (KDAY) Record (KDAY)
Temperature  
Mean Temperature 66 °F -  
Max Temperature 77 °F 84 °F 103 °F (1936)
Min Temperature 55 °F 63 °F 49 °F (1898)
Cooling Degree Days 1    
Growing Degree Days 16 (Base 50)    
Moisture  
Dew Point 59 °F    
Average Humidity 78    
Maximum Humidity 100    
Minimum Humidity 47    
Precipitation  
Precipitation 0.00 in - - ()
Sea Level Pressure  
Sea Level Pressure 30.10 in    
Wind  
Wind Speed 4 mph (NE)    
Max Wind Speed 12 mph    
Max Gust Speed 16 mph    
Visibility 9 miles    
Events      
Averages and records for this station are not official NWS values.
T = Trace of Precipitation, MM = Missing Value Source: NWS Daily Summary

Daily Weather History Graph

Daily Weather History Graph

Search for Another Location

Airport or City:

Trip Planner

Search our weather history database for the weather conditions in past years. The results will help you decide how hot, cold, wet, or windy it might be!

Date:

Astronomy

Jul. 12, 2013 Rise Set
Actual Time 6:19 AM EDT 9:07 PM EDT
Civil Twilight 5:47 AM EDT 9:40 PM EDT
Nautical Twilight 5:06 AM EDT 10:20 PM EDT
Astronomical Twilight 4:20 AM EDT 11:06 PM EDT
Moon 10:35 AM EDT (7/12) 11:17 PM EDT (7/12)
Length of Visible Light 15h 53m
Length of Day
14h 48m
Waxing Crescent, 17% of the Moon is Illuminated
Jul 12
Waxing Crescent
Jul 15
First Quarter
Jul 22
Full
Jul 29
Last Quarter
Aug 6
New

Hourly Weather History & Observations

Time (EDT) Temp. Dew Point Humidity Pressure Visibility Wind Dir Wind Speed Gust Speed Precip Events Conditions
12:15 AM 59.0 °F 59.0 °F 100% 30.05 in 10.0 mi Calm Calm - N/A   Scattered Clouds
12:35 AM 60.8 °F 59.0 °F 94% 30.06 in 10.0 mi Calm Calm - N/A   Scattered Clouds
12:55 AM 59.0 °F 59.0 °F 100% 30.06 in 10.0 mi Calm Calm - N/A   Clear
1:15 AM 59.0 °F 59.0 °F 100% 30.06 in 10.0 mi Calm Calm - N/A   Clear
1:35 AM 59.0 °F 59.0 °F 100% 30.07 in 10.0 mi Calm Calm - N/A   Scattered Clouds
1:55 AM 59.0 °F 59.0 °F 100% 30.07 in 10.0 mi Calm Calm - N/A   Mostly Cloudy
2:15 AM 59.0 °F 59.0 °F 100% 30.07 in 7.0 mi Calm Calm - N/A   Mostly Cloudy
2:35 AM 57.2 °F 57.2 °F 100% 30.07 in 7.0 mi Calm Calm - N/A   Scattered Clouds
2:55 AM 57.2 °F 57.2 °F 100% 30.07 in 7.0 mi Calm Calm - N/A   Clear
3:15 AM 57.2 °F 57.2 °F 100% 30.08 in 7.0 mi Calm Calm - N/A   Scattered Clouds
3:35 AM 57.2 °F 57.2 °F 100% 30.08 in 5.0 mi Calm Calm - N/A   Mostly Cloudy
3:55 AM 57.2 °F 57.2 °F 100% 30.08 in 7.0 mi Calm Calm - N/A   Scattered Clouds
4:15 AM 57.2 °F 57.2 °F 100% 30.08 in 5.0 mi Calm Calm - N/A   Scattered Clouds
4:35 AM 57.2 °F 57.2 °F 100% 30.08 in 7.0 mi Calm Calm - N/A   Scattered Clouds
4:55 AM 55.4 °F 55.4 °F 100% 30.08 in 3.0 mi Calm Calm - N/A   Clear
5:15 AM 55.4 °F 55.4 °F 100% 30.09 in 2.0 mi NW 3.5 mph - N/A   Clear
5:35 AM 55.4 °F 55.4 °F 100% 30.10 in 5.0 mi Calm Calm - N/A   Clear
5:55 AM 55.4 °F 55.4 °F 100% 30.10 in 5.0 mi Calm Calm - N/A   Clear
6:15 AM 55.4 °F 55.4 °F 100% 30.11 in 4.0 mi North - - N/A   Clear
6:35 AM 55.4 °F 55.4 °F 100% 30.11 in 5.0 mi North - - N/A   Clear
6:55 AM 55.4 °F 55.4 °F 100% 30.12 in 5.0 mi North - - N/A   Clear
7:15 AM 57.2 °F 57.2 °F 100% 30.12 in 5.0 mi North - - N/A   Clear
7:35 AM 59.0 °F 59.0 °F 100% 30.12 in 7.0 mi North - - N/A   Clear
7:55 AM 60.8 °F 59.0 °F 94% 30.12 in 7.0 mi North - - N/A   Clear
8:15 AM 62.6 °F 60.8 °F 94% 30.12 in 10.0 mi North - - N/A   Clear
8:35 AM 64.4 °F 60.8 °F 88% 30.14 in 10.0 mi North - - N/A   Clear
8:55 AM 64.4 °F 60.8 °F 88% 30.14 in 10.0 mi North - - N/A   Clear
9:15 AM 66.2 °F 60.8 °F 83% 30.14 in 10.0 mi North - - N/A   Clear
9:35 AM 68.0 °F 60.8 °F 78% 30.14 in 10.0 mi North - - N/A   Clear
9:55 AM 68.0 °F 60.8 °F 78% 30.14 in 10.0 mi North - - N/A   Clear
10:15 AM 68.0 °F 59.0 °F 73% 30.14 in 10.0 mi NE 10.4 mph - N/A   Clear
10:35 AM 69.8 °F 59.0 °F 68% 30.14 in 10.0 mi NE 9.2 mph - N/A   Clear
10:55 AM 69.8 °F 60.8 °F 73% 30.14 in 10.0 mi ENE 8.1 mph - N/A   Scattered Clouds
11:15 AM 71.6 °F 60.8 °F 69% 30.14 in 10.0 mi ENE 6.9 mph - N/A   Mostly Cloudy
11:35 AM 69.8 °F 59.0 °F 68% 30.14 in 10.0 mi NE 11.5 mph - N/A   Scattered Clouds
11:55 AM 71.6 °F 59.0 °F 64% 30.14 in 10.0 mi NE 11.5 mph - N/A   Scattered Clouds
12:15 PM 71.6 °F 59.0 °F 64% 30.13 in 10.0 mi NE 10.4 mph - N/A   Clear
12:35 PM 71.6 °F 55.4 °F 57% 30.12 in 10.0 mi ENE 6.9 mph 16.1 mph N/A   Clear
12:55 PM 73.4 °F 55.4 °F 53% 30.12 in 10.0 mi NE 5.8 mph - N/A   Clear
1:15 PM 73.4 °F 59.0 °F 61% 30.12 in 10.0 mi NE 11.5 mph - N/A   Clear
1:35 PM 73.4 °F 57.2 °F 57% 30.12 in 10.0 mi NNE 10.4 mph 16.1 mph N/A   Clear
1:55 PM 73.4 °F 57.2 °F 57% 30.12 in 10.0 mi NE 10.4 mph - N/A   Scattered Clouds
2:15 PM 75.2 °F 59.0 °F 57% 30.11 in 10.0 mi NE 11.5 mph 16.1 mph N/A   Scattered Clouds
2:35 PM 75.2 °F 59.0 °F 57% 30.11 in 10.0 mi NNE 4.6 mph - N/A   Scattered Clouds
2:55 PM 73.4 °F 59.0 °F 61% 30.11 in 10.0 mi NE 9.2 mph - N/A   Mostly Cloudy
3:15 PM 75.2 °F 59.0 °F 57% 30.11 in 10.0 mi NNE 9.2 mph - N/A   Mostly Cloudy
3:35 PM 75.2 °F 59.0 °F 57% 30.11 in 10.0 mi NE 10.4 mph - N/A   Mostly Cloudy
3:55 PM 77.0 °F 59.0 °F 54% 30.10 in 10.0 mi ENE 4.6 mph 9.2 mph N/A   Scattered Clouds
4:15 PM 77.0 °F 59.0 °F 54% 30.10 in 10.0 mi NNE 9.2 mph - N/A   Scattered Clouds
4:35 PM 77.0 °F 59.0 °F 54% 30.10 in 10.0 mi NE 9.2 mph - N/A   Scattered Clouds
4:55 PM 77.0 °F 55.4 °F 47% 30.10 in 10.0 mi NE 4.6 mph - N/A   Scattered Clouds
5:15 PM 77.0 °F 59.0 °F 54% 30.09 in 10.0 mi NE 10.4 mph - N/A   Scattered Clouds
5:35 PM 77.0 °F 59.0 °F 54% 30.09 in 10.0 mi ENE 9.2 mph - N/A   Scattered Clouds
5:55 PM 77.0 °F 57.2 °F 50% 30.09 in 10.0 mi NNE 9.2 mph - N/A   Mostly Cloudy
6:15 PM 77.0 °F 57.2 °F 50% 30.09 in 10.0 mi NNE 5.8 mph - N/A   Scattered Clouds
6:35 PM 77.0 °F 57.2 °F 50% 30.09 in 10.0 mi NNE 8.1 mph - N/A   Scattered Clouds
6:55 PM 77.0 °F 59.0 °F 54% 30.08 in 10.0 mi North 6.9 mph - N/A   Clear
7:15 PM 77.0 °F 57.2 °F 50% 30.08 in 10.0 mi North 8.1 mph - N/A   Scattered Clouds
7:35 PM 75.2 °F 59.0 °F 57% 30.09 in 10.0 mi NE 8.1 mph - N/A   Scattered Clouds
7:55 PM 73.4 °F 59.0 °F 61% 30.10 in 10.0 mi NNE 9.2 mph - N/A   Scattered Clouds
8:15 PM 73.4 °F 59.0 °F 61% 30.10 in 10.0 mi NE 4.6 mph - N/A   Scattered Clouds
8:35 PM 71.6 °F 59.0 °F 64% 30.09 in 10.0 mi NE 5.8 mph - N/A   Clear
8:55 PM 68.0 °F 60.8 °F 78% 30.10 in 10.0 mi NE 5.8 mph - N/A   Clear
9:15 PM 68.0 °F 62.6 °F 83% 30.10 in 10.0 mi NE 4.6 mph - N/A   Clear
9:35 PM 66.2 °F 62.6 °F 88% 30.10 in 10.0 mi NNE 4.6 mph - N/A   Clear
9:55 PM 64.4 °F 62.6 °F 94% 30.11 in 10.0 mi NE 5.8 mph - N/A   Clear
10:15 PM 66.2 °F 60.8 °F 83% 30.11 in 10.0 mi NE 6.9 mph - N/A   Clear
10:35 PM 64.4 °F 60.8 °F 88% 30.11 in 10.0 mi NE 6.9 mph - N/A   Clear
10:55 PM 68.0 °F 60.8 °F 78% 30.11 in 10.0 mi ENE 3.5 mph - N/A   Clear
11:15 PM 66.2 °F 60.8 °F 83% 30.11 in 10.0 mi ENE 3.5 mph - N/A   Clear
11:35 PM 64.4 °F 60.8 °F 88% 30.11 in 10.0 mi Calm Calm - N/A   Clear
11:55 PM 64.4 °F 60.8 °F 88% 30.11 in 10.0 mi East 5.8 mph - N/A   Clear